Probability
6 6 6 6 6 0 0 0 0 0 0 0 0 3 0 0 0 0 0 0 0 0 0 0 0 0 0 0 0 0 0 0 0 0 0 0 0 0 0 0 0 0 0
10 6 6 6 6 3 0 0 0 0 0 0 0 0 0 0 0 0 0 0 0 0 0 0 0 0 0 0 0 0 0 0 0 0 0 0 0 0 0 0 0 0 0
6 10 3 3 3 3 3 0 0 0 0 0 0 0 0 0 0 0 0 0 0 0 0 0 0 0 0 0 0 0 0 0 0 0 0 0 0 0 0 0 0 0 0
10 10 6 6 6 3 3 3 0 0 0 0 0 0 0 0 0 0 0 0 0 0 0 0 0 0 0 0 0 0 0 0 0 0 0 0 0 0 0 0 0 0 0
10 10 6 6 6 6 6 0 0 0 0 0 0 0 0 0 0 0 0 0 0 0 0 0 0 0 0 0 0 0 0 0 0 0 0 0 0 0 0 0 0 0 0
10 6 6 6 6 6 6 6 0 0 0 0 0 0 0 0 0 0 0 0 0 0 0 0 0 0 0 0 0 0 0 0 0 0 0 0 0 0 0 0 0 0 0
10 13 6 6 6 6 6 6 3 0 0 0 0 0 0 0 0 0 0 0 0 0 0 0 0 0 0 0 0 0 0 0 0 0 0 0 0 0 0 0 0 0 0
13 13 10 6 6 6 6 6 3 0 0 0 0 0 0 0 0 0 0 0 0 0 0 0 0 0 0 0 0 0 0 0 0 0 0 0 0 0 0 0 0 0 0
3 3 3 3 6 6 3 3 3 0 0 0 0 0 0 0 0 0 0 0 0 0 0 0 0 0 0 0 0 0 0 0 0 0 0 0 0 0 0 0 0 0 0
3 3 3 3 0 0 0 0 0 0 0 0 0 0 0 0 0 0 0 0 0 0 0 0 0 0 0 0 0 0 0 0 0 0 0 0 0 0 0 0 0 0 0
3 3 3 0 0 0 0 0 0 0 0 0 0 0 0 0 0 0 0 0 0 0 0 0 0 0 0 0 0 0 0 0 0 0 0 0 0 0 0 0 0 0 0
0 0 0 0 0 0 0 0 0 0 0 0 0 0 0 0 0 0 0 0 0 0 0 0 0 0 0 0 0 0 0 0 0 0 0 0 0 0 0 0 0 0 0
0 0 0 0 0 0 0 0 0 0 0 0 0 0 0 0 0 0 0 0 0 0 0 0 0 0 0 0 0 0 0 0 0 0 0 0 0 0 0 0 0 0 0
0 0 0 0 0 0 0 0 0 0 0 0 0 0 0 0 0 0 0 0 0 0 0 0 0 0 0 0 0 0 0 0 0 0 0 0 0 0 0 0 0 0 0
0 0 0 0 0 0 0 0 0 0 0 0 0 0 0 0 0 0 0 0 0 0 0 0 0 0 0 0 0 0 0 0 0 0 0 0 0 0 0 0 0 0 0
0 0 0 0 0 0 0 0 0 0 0 0 0 0 0 0 0 0 0 0 0 0 0 0 0 0 0 0 0 0 0 0 0 0 0 0 0 0 0 0 0 0 0
0 0 0 0 0 0 0 0 0 0 0 0 0 0 0 0 0 0 0 0 0 0 0 0 0 0 0 0 0 0 0 0 0 0 0 0 0 0 0 0 0 0 0
0 0 0 0 0 0 0 0 0 0 0 0 0 0 0 0 0 0 0 0 0 0 0 0 0 0 0 0 0 0 0 0 0 0 0 0 0 0 0 0 0 0 0
0 0 0 0 0 0 0 0 0 0 0 0 0 0 0 0 0 0 0 0 0 0 0 0 0 0 0 0 0 0 0 0 0 0 0 0 0 0 0 0 0 0 0
0 0 0 0 0 0 0 0 0 0 0 0 0 0 0 0 0 0 0 0 0 0 0 0 0 0 0 0 0 0 0 0 0 0 0 0 0 0 0 0 0 0 0
0 0 0 0 0 0 0 0 0 0 0 0 0 0 0 0 0 0 0 0 0 0 0 0 0 0 0 0 0 0 0 0 0 0 0 0 0 0 0 0 0 0 0
0 0 0 0 0 0 0 0 0 0 0 0 0 0 0 0 0 0 0 0 0 0 0 0 0 0 0 0 0 0 0 0 0 0 0 0 0 0 0 0 0 0 0
0 0 0 0 0 0 0 0 0 0 0 0 0 0 0 0 0 0 0 0 0 0 0 0 0 0 0 0 0 0 0 0 0 0 0 0 0 0 0 0 0 0 0
0 0 0 0 0 0 0 0 0 0 0 0 0 0 0 0 0 0 0 0 0 0 0 0 0 0 0 0 0 0 0 0 0 0 0 0 0 0 0 0 0 0 0
0 0 0 0 0 0 0 0 0 0 0 0 0 0 0 0 0 0 0 0 0 0 0 0 0 0 0 0 0 0 0 0 0 0 0 0 0 0 0 0 0 0 0
0 0 0 0 0 0 0 0 0 0 0 0 0 0 0 0 0 0 0 0 0 0 0 0 0 0 0 0 0 0 0 0 0 0 0 0 0 0 0 0 0 0 0
Height
5827 5829 5831 5834 5837 5841 5844 5847 5849 5851 5854 5856 5858 5859 5860 5860 5861 5862 5863 5863 5864 5864 5864 5863 5863 5863 5862 5861 5861 5860 5859 5858 5858 5857 5855 5854 5853 5852 5850 5849 5848 5847 5845
5826 5828 5830 5832 5835 5838 5841 5843 5846 5848 5850 5852 5854 5855 5855 5856 5857 5858 5858 5859 5859 5859 5858 5858 5857 5857 5856 5856 5855 5854 5853 5852 5852 5851 5849 5848 5847 5846 5844 5843 5841 5840 5839
5825 5827 5829 5831 5833 5835 5838 5840 5842 5844 5846 5848 5849 5850 5850 5851 5852 5852 5853 5853 5853 5852 5852 5851 5851 5850 5849 5849 5848 5847 5846 5845 5844 5843 5842 5841 5840 5838 5837 5836 5834 5833 5831
5822 5824 5827 5829 5831 5833 5835 5836 5838 5840 5841 5843 5844 5844 5845 5846 5846 5846 5846 5846 5846 5845 5845 5844 5844 5843 5842 5841 5841 5840 5839 5837 5836 5835 5833 5832 5831 5830 5829 5827 5826 5824 5823
5820 5822 5824 5826 5828 5830 5831 5832 5834 5835 5836 5837 5838 5838 5839 5839 5839 5839 5839 5839 5838 5838 5837 5836 5835 5834 5834 5833 5832 5831 5830 5828 5827 5826 5824 5823 5822 5820 5819 5818 5817 5815 5814
5819 5820 5821 5823 5824 5825 5827 5828 5829 5830 5830 5831 5832 5832 5832 5832 5832 5832 5832 5831 5830 5829 5829 5828 5827 5825 5824 5823 5822 5821 5820 5818 5817 5816 5815 5814 5812 5810 5808 5807 5806 5805 5804
5815 5816 5818 5819 5819 5820 5821 5822 5823 5824 5824 5824 5825 5825 5825 5824 5824 5824 5823 5822 5821 5820 5819 5818 5817 5816 5814 5812 5811 5810 5809 5808 5807 5805 5804 5802 5801 5799 5797 5796 5794 5793 5791
5811 5812 5813 5814 5815 5815 5816 5816 5816 5817 5817 5817 5816 5816 5816 5815 5814 5814 5813 5812 5811 5810 5809 5807 5806 5805 5803 5802 5801 5799 5798 5796 5794 5793 5792 5790 5788 5786 5784 5783 5781 5780 5779
5807 5807 5808 5808 5809 5809 5810 5809 5809 5810 5809 5808 5807 5807 5806 5805 5804 5803 5802 5801 5801 5800 5798 5797 5795 5794 5792 5790 5789 5788 5786 5784 5782 5780 5779 5777 5775 5773 5770 5769 5768 5766 5766
5801 5802 5802 5802 5803 5803 5803 5802 5802 5801 5801 5800 5799 5798 5796 5795 5795 5793 5792 5791 5789 5788 5787 5785 5784 5782 5780 5778 5777 5775 5774 5772 5769 5767 5765 5764 5761 5759 5756 5755 5753 5751 5750
5794 5794 5795 5795 5795 5795 5795 5795 5794 5793 5792 5791 5789 5788 5787 5785 5784 5782 5780 5779 5778 5776 5775 5773 5771 5769 5767 5765 5763 5762 5760 5758 5756 5754 5752 5750 5747 5745 5742 5740 5738 5736 5734
5788 5788 5788 5788 5788 5787 5787 5786 5785 5784 5782 5781 5780 5778 5776 5774 5772 5770 5768 5767 5765 5764 5762 5760 5758 5757 5754 5752 5750 5748 5746 5744 5742 5740 5738 5736 5733 5730 5728 5725 5722 5720 5718
5782 5781 5781 5780 5780 5779 5778 5777 5776 5774 5772 5770 5769 5767 5765 5763 5761 5759 5757 5755 5753 5751 5749 5747 5745 5743 5741 5738 5736 5734 5732 5729 5727 5725 5723 5720 5718 5715 5712 5710 5707 5703 5701
5774 5773 5773 5772 5771 5770 5769 5767 5766 5764 5762 5760 5758 5756 5754 5751 5749 5747 5745 5743 5741 5738 5736 5733 5731 5728 5726 5723 5721 5718 5716 5713 5711 5709 5707 5704 5701 5699 5696 5692 5689 5686 5684
5766 5766 5765 5764 5763 5761 5760 5758 5756 5754 5751 5749 5747 5744 5742 5740 5737 5735 5733 5730 5727 5724 5721 5719 5716 5714 5711 5708 5705 5702 5700 5697 5695 5692 5689 5687 5684 5681 5678 5674 5670 5667 5665
5758 5757 5756 5755 5753 5751 5749 5747 5745 5743 5740 5738 5735 5733 5730 5727 5725 5721 5719 5716 5712 5709 5706 5703 5700 5698 5695 5693 5690 5686 5683 5680 5677 5674 5672 5669 5666 5662 5659 5655 5651 5648 5645
5749 5748 5746 5745 5743 5741 5739 5737 5734 5732 5729 5726 5723 5720 5718 5715 5711 5708 5705 5701 5698 5694 5691 5687 5684 5681 5678 5676 5673 5670 5667 5663 5660 5657 5654 5650 5647 5644 5640 5637 5633 5629 5626
5740 5738 5737 5735 5733 5730 5728 5725 5723 5720 5717 5714 5711 5708 5704 5701 5697 5693 5690 5686 5682 5678 5675 5671 5668 5665 5661 5658 5655 5652 5649 5645 5642 5639 5635 5632 5628 5625 5622 5618 5615 5611 5607
5730 5728 5726 5724 5722 5719 5716 5714 5711 5708 5705 5701 5698 5694 5690 5686 5682 5679 5675 5671 5667 5663 5659 5655 5651 5648 5644 5641 5637 5634 5631 5627 5624 5621 5618 5615 5611 5608 5605 5601 5597 5594 5590
5720 5718 5715 5713 5710 5708 5705 5701 5698 5695 5691 5688 5684 5680 5676 5672 5668 5663 5659 5655 5651 5647 5643 5638 5634 5630 5627 5623 5620 5616 5613 5610 5607 5605 5602 5599 5595 5592 5589 5586 5582 5579 5575
5710 5707 5705 5702 5699 5696 5692 5689 5685 5681 5677 5673 5668 5664 5660 5656 5652 5647 5643 5639 5634 5630 5626 5622 5618 5614 5610 5607 5604 5601 5599 5596 5593 5590 5587 5584 5581 5578 5575 5572 5569 5565 5562
5699 5696 5693 5690 5686 5683 5679 5675 5670 5666 5661 5657 5653 5648 5643 5639 5635 5631 5627 5623 5618 5614 5610 5606 5603 5599 5596 5593 5591 5588 5585 5583 5580 5577 5574 5571 5568 5565 5562 5559 5556 5553 5550
5688 5685 5681 5677 5673 5669 5664 5660 5655 5650 5646 5641 5637 5632 5627 5623 5619 5615 5611 5607 5603 5599 5596 5593 5590 5587 5584 5581 5578 5576 5573 5571 5568 5565 5563 5560 5557 5554 5551 5548 5545 5543 5540
5676 5672 5668 5664 5659 5654 5649 5644 5639 5635 5630 5626 5621 5617 5613 5608 5604 5600 5597 5593 5590 5586 5583 5580 5577 5575 5572 5569 5567 5564 5562 5559 5557 5554 5552 5549 5547 5544 5541 5538 5535 5533 5530
5663 5659 5654 5649 5644 5639 5634 5629 5624 5620 5615 5611 5607 5603 5599 5595 5591 5587 5583 5580 5577 5574 5571 5568 5566 5564 5561 5559 5556 5554 5551 5549 5547 5544 5542 5540 5538 5535 5532 5529 5526 5524 5521
5649 5644 5639 5634 5629 5624 5619 5615 5610 5606 5602 5598 5594 5590 5586 5583 5579 5575 5571 5568 5565 5563 5560 5558 5556 5554 5551 5549 5547 5544 5542 5540 5538 5536 5534 5532 5530 5527 5524 5521 5519 5516 5514
Wind_Speed
14 14 17 18 19 20 20 19 19 19 19 20 20 19 19 19 19 19 19 19 20 20 20 20 20 21 21 22 21 21 22 22 22 22 23 23 24 24 23 24 24 24 24
13 13 15 18 19 20 20 20 20 20 20 20 21 21 21 21 21 21 22 22 23 23 23 23 24 24 24 24 24 24 24 24 25 25 25 26 27 27 27 27 27 27 27
14 14 15 17 19 19 20 21 21 21 21 21 22 21 22 22 22 23 24 25 26 26 26 26 27 27 27 27 27 27 27 28 28 28 28 28 29 29 30 30 30 30 30
14 15 15 16 17 18 19 21 22 22 22 23 23 23 23 24 24 25 26 27 28 28 29 29 29 30 30 30 30 30 30 31 31 32 32 31 31 32 33 33 33 33 33
13 14 15 16 16 17 18 20 22 23 23 24 24 25 26 26 27 28 29 30 30 30 31 32 32 33 32 33 33 33 34 34 34 35 35 35 35 36 36 36 36 36 37
14 15 16 17 18 19 20 21 22 23 24 26 27 27 28 29 30 30 30 31 32 33 33 34 35 36 36 37 37 36 36 36 37 37 37 38 38 39 39 39 39 39 39
15 16 17 18 18 20 21 22 23 25 26 27 28 29 31 32 33 33 34 35 35 35 35 36 37 38 39 38 38 38 37 38 39 39 40 40 41 42 42 42 42 42 42
18 18 18 19 20 21 22 23 25 27 28 30 31 32 32 34 35 37 38 38 37 37 38 39 39 40 41 41 40 40 41 41 42 42 42 43 44 45 45 45 45 44 44
21 21 21 21 22 23 25 26 27 29 30 31 32 33 34 34 35 37 38 38 39 39 39 40 41 41 42 42 43 42 43 43 44 44 44 45 46 47 48 48 47 47 46
22 22 23 24 25 26 27 29 30 30 32 32 31 33 34 35 37 38 39 40 41 41 42 42 43 43 44 45 45 45 45 46 46 46 46 47 48 48 49 50 50 50 49
23 24 24 26 27 28 29 30 30 31 32 33 34 35 36 37 38 39 40 41 41 42 43 44 44 45 46 46 46 46 47 48 48 49 48 49 49 50 51 51 52 52 52
24 26 26 27 28 29 30 31 32 32 34 36 36 38 39 39 40 41 42 42 42 44 44 45 46 46 46 46 47 47 48 50 51 51 51 51 51 51 52 54 55 55 55
26 28 29 30 30 31 32 33 34 35 36 37 37 39 40 41 40 41 41 42 43 44 45 45 46 47 48 49 49 50 51 52 53 52 51 52 53 53 55 56 57 57 58
28 28 29 30 31 32 32 33 34 35 36 37 38 39 40 41 41 41 42 44 45 46 47 48 49 50 51 51 52 53 53 53 54 54 54 54 56 56 58 59 59 59 59
29 29 29 30 31 32 32 33 35 36 37 37 38 39 40 41 41 42 44 46 47 48 49 50 51 51 52 53 54 54 55 55 56 57 58 58 58 59 59 60 60 61 62
30 30 31 32 32 33 34 35 36 37 38 39 40 41 42 42 43 44 45 46 48 49 50 51 52 53 54 55 56 56 56 57 58 59 59 60 60 60 59 60 60 61 61
31 32 32 33 34 35 36 37 38 39 40 41 42 42 43 44 45 47 47 48 49 51 51 52 52 53 54 55 56 56 57 58 59 59 59 60 59 59 59 59 60 60 60
32 32 33 34 35 36 37 38 39 39 41 42 43 44 45 46 47 48 49 50 51 51 52 53 54 54 55 55 56 57 58 58 59 59 58 58 58 57 58 58 58 57 57
32 33 35 36 37 38 38 39 40 42 43 44 45 46 47 48 49 50 50 51 52 53 53 54 55 55 56 56 56 56 56 56 55 54 54 54 54 54 53 53 53 53 53
35 36 37 38 38 40 41 42 43 45 46 47 48 48 49 50 51 51 52 52 53 53 53 53 54 55 54 54 53 52 50 49 49 49 49 49 48 47 47 47 47 47 46
36 37 38 40 41 42 44 45 46 48 48 49 50 50 51 51 52 52 52 53 53 53 53 53 52 51 49 48 47 46 45 45 45 45 44 43 43 42 43 43 43 42 42
38 39 41 42 44 45 47 48 49 50 51 51 52 53 53 53 53 52 52 52 52 51 50 49 47 45 44 43 43 42 42 42 41 41 40 39 39 39 39 39 39 37 36
41 42 44 45 46 48 49 50 51 51 51 52 52 52 51 51 51 50 49 48 47 46 45 43 42 41 41 40 40 40 39 38 37 37 36 36 36 36 36 35 33 32 32
43 44 46 47 49 50 50 50 50 50 50 50 49 49 48 48 47 46 45 44 43 42 40 39 38 38 38 37 37 36 35 34 33 33 33 32 32 31 30 29 30 30 29
45 47 48 48 49 49 49 49 48 48 48 47 46 46 45 44 43 43 42 40 39 37 36 36 35 34 34 34 33 32 31 30 30 29 28 28 27 27 27 27 27 27 26
47 48 48 48 47 47 46 45 45 44 44 43 42 41 40 39 38 38 36 35 33 32 32 31 30 30 29 28 28 27 27 26 26 25 25 24 24 24 24 23 22 21 20
Wind_Direction
199 202 204 206 208 210 213 217 221 226 230 233 238 242 247 250 252 256 260 264 266 267 271 273 275 277 278 280 281 281 281 281 280 280 281 282 283 284 286 287 288 288 288
204 207 209 211 213 216 218 222 227 231 235 239 243 247 250 253 256 259 263 267 268 270 272 273 274 275 277 278 279 280 282 282 281 280 279 281 282 282 283 284 285 285 286
211 214 216 219 220 223 227 230 234 238 241 244 247 250 254 258 261 263 265 269 270 271 273 274 274 275 276 277 278 279 280 281 280 280 279 279 280 280 282 282 283 284 284
218 220 222 226 231 231 236 237 238 242 246 249 251 254 257 260 262 264 267 269 270 272 273 274 274 275 277 279 280 280 280 280 279 279 278 279 279 280 280 280 281 282 283
227 227 228 231 236 239 243 242 244 248 250 253 254 257 259 263 265 268 268 269 271 273 275 274 274 275 276 278 279 280 280 279 278 278 278 278 278 279 279 279 280 281 282
235 236 236 240 243 244 246 249 252 254 255 256 259 262 264 266 268 270 271 272 273 274 275 277 276 275 275 277 278 279 279 278 278 278 278 277 277 278 279 280 280 280 280
243 244 244 247 249 250 252 255 258 260 261 262 263 265 267 268 269 271 273 273 273 274 275 276 277 277 278 277 277 278 278 278 279 279 278 278 278 278 278 279 280 280 280
248 249 251 253 256 256 256 258 259 261 264 266 267 266 267 268 268 269 270 272 273 274 275 274 275 276 278 277 277 277 277 277 278 279 279 279 278 278 279 279 280 279 279
256 255 257 258 260 261 262 263 265 266 269 271 270 269 271 272 273 273 271 272 272 273 275 275 277 277 277 278 278 278 278 278 279 279 280 279 279 279 279 279 280 280 279
259 259 260 262 264 265 266 269 271 271 272 273 275 276 276 276 276 276 274 274 274 273 274 275 275 277 279 279 278 278 278 278 278 278 279 280 281 281 281 280 280 280 279
263 262 262 264 267 269 271 273 275 275 277 277 278 279 279 279 279 278 276 276 276 275 274 275 276 278 280 280 279 278 278 278 278 278 280 280 281 281 280 280 280 280 280
267 268 268 268 269 272 274 277 276 276 279 280 279 280 279 280 280 279 278 277 277 276 276 276 277 279 279 279 278 278 279 279 278 278 280 280 280 280 279 280 281 281 280
269 272 274 274 274 276 278 278 279 279 278 278 279 279 280 280 281 280 279 279 278 277 277 277 277 278 279 279 278 278 279 279 279 279 280 281 280 279 279 280 280 280 280
274 276 276 277 278 279 280 280 280 280 280 280 281 282 283 282 281 281 279 277 278 277 278 278 277 278 279 279 279 280 280 280 280 280 280 280 280 280 280 280 280 280 280
277 279 278 278 278 280 281 282 282 282 283 283 283 284 285 284 283 282 281 280 279 279 279 279 278 279 280 280 280 280 280 281 281 281 281 281 281 282 282 282 282 281 281
279 281 282 283 285 285 285 285 285 285 285 285 285 285 285 284 284 283 283 283 282 281 280 279 279 280 280 280 280 280 280 281 282 282 282 282 283 283 282 282 282 282 282
282 284 285 286 287 287 287 286 287 287 287 286 286 286 285 285 284 284 284 284 284 283 282 281 281 281 282 282 282 282 281 282 282 282 283 283 283 283 282 282 283 283 283
285 285 285 286 287 287 287 287 287 287 287 287 287 286 286 286 285 285 286 286 285 285 285 284 284 284 284 284 284 284 283 284 283 283 282 283 283 283 284 284 284 284 284
286 286 287 289 289 289 288 289 289 289 289 289 288 288 288 288 287 287 287 287 287 287 287 286 286 286 286 286 285 285 284 284 283 283 283 284 285 285 285 285 285 285 286
288 289 290 290 290 290 289 290 290 290 290 290 289 289 288 288 288 288 288 288 288 288 288 288 288 288 288 287 287 286 286 285 285 285 285 286 286 286 287 287 287 287 287
289 289 290 290 290 290 290 291 291 291 291 290 290 289 289 289 289 289 289 289 289 290 290 290 290 290 289 289 288 288 287 286 287 287 287 287 287 287 288 289 289 289 289
291 291 291 291 291 291 292 292 291 291 291 291 291 290 290 290 290 290 291 291 291 291 291 291 290 290 289 288 288 288 289 289 288 287 287 288 288 288 289 290 290 289 289
292 292 293 293 293 292 292 292 292 292 292 292 292 292 292 292 292 292 292 292 292 291 291 290 290 290 289 288 288 289 290 289 287 287 287 289 290 290 290 291 290 290 290
293 294 294 294 293 293 293 292 292 293 293 293 293 294 294 294 294 293 293 293 292 292 291 290 290 289 289 290 290 290 290 289 289 289 290 291 293 293 292 292 290 290 290
294 294 294 295 294 294 294 294 294 294 294 294 294 295 295 295 295 295 294 294 293 293 291 291 290 289 290 291 290 290 290 290 291 291 292 293 293 293 293 294 293 292 291
296 296 296 296 296 296 296 296 296 296 296 296 296 296 296 297 297 297 296 295 294 294 293 293 292 291 291 291 291 292 293 293 293 292 294 295 295 295 296 298 297 296 295